Regional Weather Roundup
Issued by NWS Burlington, VT

Home | Current Version | Previous Version | Text Only | Print | Product List | Glossary On
Versions: 1 2 3 4 5 6 7 8 9 10 11 12 13 14 15 16 17 18 19 20 21 22 23 24 25 26 27 28 29 30 31 32 33 34 35 36 37 38 39 40 41 42 43 44 45 46 47 48 49 50
000
ASUS41 KBTV 081730
RWRBTV
VERMONT REGIONAL WEATHER ROUNDUP
NATIONAL WEATHER SERVICE BURLINGTON VT
1200 PM EST MON FEB 08 2016

NOTE: "FAIR" INDICATES FEW OR NO CLOUDS BELOW 12,000 FEET WITH NO
SIGNIFICANT WEATHER AND/OR OBSTRUCTIONS TO VISIBILITY.

* THESE REPORTS ARE NOT UNDER NWS QUALITY CONTROL AND/OR DO NOT
  REPORT WEATHER SUCH AS PRECIPITATION AND FOG.

VTZ001>019-081800-
_____VERMONT_____


CITY           SKY/WX    TMP DP  RH WIND       PRES   REMARKS
BURLINGTON     PTSUNNY   26  13  57 NW8       29.89F WCI  18
MONTPELIER     FAIR      24   5  44 N6        29.88F WCI  17
MORRISVILLE    FAIR      28  -2  27 CALM      29.88F
ST. JOHNSBURY*   N/A     26  -6  24 MISG      29.85F
LYNDONVILLE*   PTSUNNY   23  -9  23 CALM      29.85F
RUTLAND*       CLOUDY    27 -11  18 NE10      29.83F WCI  17
SPRINGFIELD    CLOUDY    25 -11  20 E10       29.87F WCI  15
HIGHGATE*      FAIR      27   9  46 N7        29.90F WCI  19
NEWPORT*       FAIR      24   1  37 N7        29.87F WCI  15
BENNINGTON     CLOUDY    29 -10  18 VRB5      29.83F WCI  24
SUTTON*          N/A     21 N/A N/A MISG        N/A
GALLUP MILLS*    N/A     21 N/A N/A MISG        N/A
UNION VILLAGE*   N/A     27 N/A N/A MISG        N/A
MT. MANSFIELD*   N/A     18 N/A N/A NW7         N/A  WCI   8

_____LAKE CHAMPLAIN_____


CITY           SKY/WX    TMP DP  RH WIND       PRES   REMARKS
COLCHESTER RF*   N/A     25  16  68 N13         N/A  WCI  13
DIAMOND ISL*     N/A     27  19  74 N16         N/A  WCI  14

$$

NYZ007-026>031-035-052-083-081800-
_____NORTHERN NEW YORK_____


CITY           SKY/WX    TMP DP  RH WIND       PRES   REMARKS
PLATTSBURGH    CLOUDY    24   8  50 N10       29.92F WCI  14
SARANAC LAKE   FLURRIES  29  19  66 E6        29.74F WCI  23
MASSENA        CLOUDY    21   7  54 E17       29.92F WCI   7
OGDENSBURG*    SUNNY     28  12  50 NE13      29.85F WCI  18
STARK FALLS*     N/A     34 N/A N/A NW3         N/A
WATERTOWN      CLOUDY    33  22  63 NE14      29.79F WCI  23
ALBANY         CLOUDY    34  11  38 NE5       29.86F WCI  30
GLENS FALLS    CLOUDY    31   4  31 NE10      29.87F WCI  22

$$
NHZ002-005-011-081800-
_____NEW HAMPSHIRE_____


CITY           SKY/WX    TMP DP  RH WIND       PRES   REMARKS
LEBANON        CLOUDY    28 -12  17 VRB3      29.86F
MT WASHINGTON  CLOUDY     3 -33  17 E32G47      N/A  WCI -22
PLYMOUTH       PTSUNNY   26 -10  21 E5        29.87F WCI  20
WHITEFIELD     PTSUNNY   23 -11  22 E20G30    29.85F WCI   8

$$

_____REGIONAL QUEBEC LOCATIONS_____


CITY           SKY/WX    TMP DP  RH WIND       PRES   REMARKS
MONTREAL       CLOUDY    19   1  45 NE17G26   29.96F WCI   4
QUEBEC CITY    FLURRIES  16   7  67 E25G36    30.07F WCI  -3
SHERBROOKE     SUNNY     19  -2  38 NE10      29.90F WCI   8

_____REGIONAL ONTARIO LOCATIONS_____


CITY           SKY/WX    TMP DP  RH WIND       PRES   REMARKS
OTTAWA         PTSUNNY   19   5  53 E15G23    29.90F WCI   5

______KEY______
VSB  - VISIBILITY IN MILES
WCI  - WIND CHILL INDEX
HX   - HEAT INDEX
$$
NNNN



USA.gov is the U.S. government's official web portal to all federal, state and local government web resources and services.